| time (UTC) | temp C | wind direction | speed KPH | gust KPH | rain 1hr cm | rain 24hr cm | rain mn cm | humidity % | barometer mb |
| 20260505201048 | 22 | 264 | 3.2 | 4.8 | 0.00 | 0.00 | 0.00 | 55 | 998.3 |
| 20260505200545 | 22 | 236 | 3.2 | 3.2 | 0.00 | 0.00 | 0.00 | 55 | 998.5 |
| 20260505200042 | 22 | 330 | 4.8 | 4.8 | 0.00 | 0.00 | 0.00 | 55 | 998.4 |
| 20260505195538 | 23 | 299 | 4.8 | 4.8 | 0.00 | 0.00 | 0.00 | 54 | 998.6 |
| 20260505195036 | 22 | 86 | 3.2 | 4.8 | 0.00 | 0.00 | 0.00 | 53 | 998.5 |
| 20260505194533 | 23 | 273 | 6.4 | 9.7 | 0.00 | 0.00 | 0.00 | 52 | 998.6 |
| 20260505194028 | 23 | 268 | 9.7 | 17.7 | 0.00 | 0.00 | 0.00 | 53 | 998.4 |
| 20260505193526 | 23 | 284 | 9.7 | 11.3 | 0.00 | 0.00 | 0.00 | 53 | 998.5 |
| 20260505193023 | 23 | 231 | 6.4 | 11.3 | 0.00 | 0.00 | 0.00 | 53 | 998.8 |
| 20260505192521 | 22 | 274 | 6.4 | 9.7 | 0.00 | 0.00 | 0.00 | 54 | 998.8 |
| 20260505192019 | 22 | 283 | 3.2 | 4.8 | 0.00 | 0.00 | 0.00 | 55 | 998.8 |
| 20260505191517 | 22 | 280 | 12.9 | 22.5 | 0.00 | 0.00 | 0.00 | 54 | 999.2 |
| 20260505191014 | 22 | 326 | 3.2 | 4.8 | 0.00 | 0.00 | 0.00 | 54 | 999.0 |
| 20260505190509 | 23 | 276 | 8.0 | 9.7 | 0.00 | 0.00 | 0.00 | 54 | 999.2 |
| 20260505190005 | 22 | 245 | 6.4 | 9.7 | 0.00 | 0.00 | 0.00 | 54 | 999.3 |
| 20260505185502 | 22 | 318 | 3.2 | 4.8 | 0.00 | 0.00 | 0.00 | 54 | 999.1 |
| 20260505184958 | 22 | 293 | 8.0 | 9.7 | 0.00 | 0.00 | 0.00 | 54 | 999.4 |
| 20260505184455 | 22 | 278 | 4.8 | 6.4 | 0.00 | 0.00 | 0.00 | 54 | 999.5 |
| 20260505183951 | 23 | 358 | 4.8 | 6.4 | 0.00 | 0.00 | 0.00 | 55 | 999.6 |
| 20260505183449 | 22 | 147 | 4.8 | 6.4 | 0.00 | 0.00 | 0.00 | 54 | 999.5 |
| 20260505182945 | 23 | 282 | 4.8 | 6.4 | 0.00 | 0.00 | 0.00 | 54 | 999.7 |
| 20260505182442 | 22 | 224 | 1.6 | 1.6 | 0.00 | 0.00 | 0.00 | 54 | 999.5 |
| 20260505181938 | 22 | 230 | 6.4 | 6.4 | 0.00 | 0.00 | 0.00 | 57 | 999.6 |
| 20260505181436 | 22 | 103 | 3.2 | 4.8 | 0.00 | 0.00 | 0.00 | 54 | 999.7 |
| 20260505180933 | 23 | 245 | 4.8 | 4.8 | 0.00 | 0.00 | 0.00 | 54 | 999.7 |
| 20260505180429 | 22 | 351 | 1.6 | 3.2 | 0.00 | 0.00 | 0.00 | 55 | 999.8 |
| 20260505175925 | 23 | 249 | 6.4 | 9.7 | 0.00 | 0.00 | 0.00 | 54 | 999.7 |
| 20260505175422 | 23 | 185 | 1.6 | 1.6 | 0.00 | 0.00 | 0.00 | 54 | 999.8 |
| 20260505174918 | 23 | 74 | 6.4 | 6.4 | 0.00 | 0.00 | 0.00 | 51 | 999.7 |
| 20260505174416 | 23 | 129 | 3.2 | 3.2 | 0.00 | 0.00 | 0.00 | 55 | 999.7 |
| 20260505173912 | 22 | 300 | 3.2 | 9.7 | 0.00 | 0.00 | 0.00 | 54 | 1000.0 |
| 20260505173408 | 22 | 238 | 9.7 | 12.9 | 0.00 | 0.00 | 0.00 | 54 | 999.9 |
| 20260505172905 | 23 | 134 | 4.8 | 11.3 | 0.00 | 0.00 | 0.00 | 56 | 999.8 |
| 20260505172403 | 23 | 13 | 6.4 | 9.7 | 0.00 | 0.00 | 0.00 | 52 | 999.9 |
| 20260505171903 | 23 | 85 | 3.2 | 4.8 | 0.00 | 0.00 | 0.00 | 53 | 1000.2 |
| 20260505171400 | 23 | 65 | 3.2 | 3.2 | 0.00 | 0.00 | 0.00 | 53 | 1000.3 |
| 20260505170856 | 23 | 251 | 4.8 | 6.4 | 0.00 | 0.00 | 0.00 | 52 | 1000.2 |
| 20260505170354 | 23 | 266 | 6.4 | 6.4 | 0.00 | 0.00 | 0.00 | 53 | 1000.3 |
| 20260505165848 | 23 | 232 | 8.0 | 11.3 | 0.00 | 0.00 | 0.00 | 54 | 1000.7 |
| 20260505165344 | 22 | 346 | 1.6 | 3.2 | 0.00 | 0.00 | 0.00 | 56 | 1000.5 |
| 20260505164840 | 22 | 283 | 1.6 | 3.2 | 0.00 | 0.00 | 0.00 | 57 | 1000.7 |
| 20260505164337 | 22 | 161 | 6.4 | 9.7 | 0.00 | 0.00 | 0.00 | 56 | 1000.9 |
| 20260505163836 | 22 | 221 | 8.0 | 16.1 | 0.00 | 0.00 | 0.00 | 56 | 1001.1 |
| 20260505163334 | 21 | 287 | 8.0 | 11.3 | 0.00 | 0.00 | 0.00 | 57 | 1001.1 |
| 20260505162832 | 21 | 203 | 6.4 | 9.7 | 0.00 | 0.00 | 0.00 | 58 | 1001.3 |
| 20260505162328 | 21 | 297 | 3.2 | 4.8 | 0.00 | 0.00 | 0.00 | 56 | 1001.3 |
| 20260505161825 | 20 | 145 | 3.2 | 4.8 | 0.00 | 0.00 | 0.00 | 58 | 1001.2 |
| 20260505161322 | 20 | 124 | 4.8 | 4.8 | 0.00 | 0.00 | 0.00 | 58 | 1001.4 |
| 20260505160819 | 20 | 52 | 1.6 | 1.6 | 0.00 | 0.00 | 0.00 | 60 | 1001.5 |
| 20260505160318 | 20 | 111 | 1.6 | 3.2 | 0.00 | 0.00 | 0.00 | 62 | 1001.6 |
| 20260505153256 | 18 | 214 | 6.4 | 6.4 | 0.00 | 0.00 | 0.00 | 64 | 1002.1 |
| 20260505152753 | 18 | 127 | 3.2 | 3.2 | 0.00 | 0.00 | 0.00 | 65 | 1002.2 |
| 20260505152249 | 19 | 260 | 8.0 | 9.7 | 0.00 | 0.00 | 0.00 | 62 | 1002.2 |
| 20260505151744 | 18 | 239 | 3.2 | 4.8 | 0.00 | 0.00 | 0.00 | 64 | 1002.4 |
| 20260505151242 | 18 | 137 | 3.2 | 3.2 | 0.00 | 0.00 | 0.00 | 65 | 1002.3 |
| 20260505150738 | 17 | 267 | 4.8 | 4.8 | 0.00 | 0.00 | 0.00 | 64 | 1002.3 |
| 20260505150236 | 17 | 214 | 3.2 | 4.8 | 0.00 | 0.00 | 0.00 | 64 | 1002.3 |
| 20260505140200 | 18 | 270 | 4.8 | 6.4 | 0.00 | 0.00 | 0.00 | 59 | 1001.9 |
| 20260505130124 | 16 | 293 | 6.4 | 6.4 | 0.00 | 0.00 | 0.00 | 66 | 1002.4 |
| 20260505124613 | 15 | 111 | 1.6 | 3.2 | 0.00 | 0.00 | 0.00 | 69 | 1002.3 |
| 20260505124109 | 15 | 161 | 1.6 | 3.2 | 0.00 | 0.00 | 0.00 | 70 | 1002.2 |
| 20260505123606 | 15 | 132 | 1.6 | 1.6 | 0.00 | 0.00 | 0.00 | 71 | 1002.4 |
| 20260505123103 | 14 | 241 | 3.2 | 4.8 | 0.00 | 0.00 | 0.00 | 72 | 1002.4 |
| 20260505122559 | 13 | 266 | 3.2 | 4.8 | 0.00 | 0.00 | 0.00 | 73 | 1002.6 |
| 20260505122056 | 13 | 260 | 3.2 | 4.8 | 0.00 | 0.00 | 0.00 | 75 | 1002.5 |
| 20260505121553 | 13 | 212 | 3.2 | 4.8 | 0.00 | 0.00 | 0.00 | 74 | 1002.7 |
| 20260505121050 | 13 | 227 | 4.8 | 4.8 | 0.00 | 0.00 | 0.00 | 77 | 1002.5 |
| 20260505120546 | 12 | 225 | 3.2 | 3.2 | 0.00 | 0.00 | 0.00 | 76 | 1002.5 |
| 20260505120042 | 12 | 253 | 4.8 | 6.4 | 0.00 | 0.00 | 0.00 | 78 | 1002.5 |
| 20260505115536 | 12 | 198 | 3.2 | 4.8 | 0.00 | 0.00 | 0.00 | 77 | 1002.6 |
| 20260505115034 | 12 | 146 | 1.6 | 1.6 | 0.00 | 0.00 | 0.00 | 79 | 1002.6 |
| 20260505114531 | 11 | 136 | 1.6 | 3.2 | 0.00 | 0.00 | 0.00 | 79 | 1002.8 |
| 20260505114027 | 11 | 264 | 3.2 | 4.8 | 0.00 | 0.00 | 0.00 | 80 | 1002.5 |
| 20260505113524 | 11 | 277 | 3.2 | 3.2 | 0.00 | 0.00 | 0.00 | 81 | 1002.7 |
| 20260505113020 | 10 | 124 | 1.6 | 1.6 | 0.00 | 0.00 | 0.00 | 82 | 1002.6 |
| 20260505112516 | 10 | 82 | 0.0 | 1.6 | 0.00 | 0.00 | 0.00 | 83 | 1002.5 |
| 20260505112014 | 10 | 355 | 1.6 | 3.2 | 0.00 | 0.00 | 0.00 | 83 | 1002.5 |
| 20260505111508 | 10 | 212 | 1.6 | 1.6 | 0.00 | 0.00 | 0.00 | 83 | 1002.6 |
| 20260505111005 | 10 | 241 | 3.2 | 3.2 | 0.00 | 0.00 | 0.00 | 83 | 1002.5 |
| 20260505110501 | 10 | 249 | 1.6 | 3.2 | 0.00 | 0.00 | 0.00 | 84 | 1003.0 |
| 20260505101932 | 8 | 12 | 1.6 | 1.6 | 0.00 | 0.00 | 0.00 | 87 | 1002.8 |
| 20260505101427 | 8 | 40 | 1.6 | 1.6 | 0.00 | 0.00 | 0.00 | 85 | 1002.8 |
| 20260505100923 | 8 | 219 | 1.6 | 3.2 | 0.00 | 0.00 | 0.00 | 88 | 1002.8 |
| 20260505100420 | 8 | 40 | 0.0 | 0.0 | 0.00 | 0.00 | 0.00 | 87 | 1002.7 |
| 20260505095915 | 8 | 15 | 1.6 | 1.6 | 0.00 | 0.00 | 0.00 | 85 | 1002.9 |
| 20260505095413 | 8 | 221 | 3.2 | 3.2 | 0.00 | 0.00 | 0.00 | 87 | 1002.6 |
| 20260505094909 | 8 | 26 | 0.0 | 1.6 | 0.00 | 0.00 | 0.00 | 88 | 1002.7 |
| 20260505094406 | 7 | 43 | 1.6 | 1.6 | 0.00 | 0.00 | 0.00 | 88 | 1002.5 |
| 20260505093901 | 8 | 229 | 1.6 | 3.2 | 0.00 | 0.00 | 0.00 | 87 | 1002.6 |
| 20260505093359 | 8 | 37 | 1.6 | 1.6 | 0.00 | 0.00 | 0.00 | 84 | 1002.6 |
| 20260505092856 | 8 | 9 | 1.6 | 1.6 | 0.00 | 0.00 | 0.00 | 85 | 1002.5 |
| 20260505092354 | 7 | 8 | 1.6 | 1.6 | 0.00 | 0.00 | 0.00 | 87 | 1002.7 |
| 20260505091851 | 8 | 25 | 1.6 | 1.6 | 0.00 | 0.00 | 0.00 | 86 | 1002.4 |
| 20260505091349 | 7 | 358 | 3.2 | 3.2 | 0.00 | 0.00 | 0.00 | 87 | 1002.6 |
| 20260505090847 | 7 | 23 | 0.0 | 1.6 | 0.00 | 0.00 | 0.00 | 88 | 1002.8 |
| 20260505090345 | 8 | 34 | 1.6 | 1.6 | 0.00 | 0.00 | 0.00 | 84 | 1002.7 |
| 20260505085841 | 10 | 22 | 1.6 | 3.2 | 0.00 | 0.00 | 0.00 | 80 | 1002.7 |
| 20260505085340 | 8 | 264 | 4.8 | 4.8 | 0.00 | 0.00 | 0.00 | 84 | 1002.7 |
| 20260505084837 | 8 | 88 | 0.0 | 1.6 | 0.00 | 0.00 | 0.00 | 85 | 1002.7 |
| 20260505084335 | 8 | 31 | 1.6 | 1.6 | 0.00 | 0.00 | 0.00 | 86 | 1002.6 |
| 20260505083832 | 8 | 311 | 1.6 | 3.2 | 0.00 | 0.00 | 0.00 | 85 | 1002.9 |
| 20260505083330 | 7 | 257 | 4.8 | 4.8 | 0.00 | 0.00 | 0.00 | 87 | 1002.8 |
| 20260505082826 | 7 | 256 | 4.8 | 4.8 | 0.00 | 0.00 | 0.00 | 88 | 1003.0 |
| 20260505082322 | 7 | 18 | 1.6 | 1.6 | 0.00 | 0.00 | 0.00 | 89 | 1002.9 |
| 20260505081819 | 7 | 40 | 1.6 | 1.6 | 0.00 | 0.00 | 0.00 | 89 | 1002.8 |
| 20260505081316 | 6 | 26 | 0.0 | 1.6 | 0.00 | 0.00 | 0.00 | 92 | 1003.0 |
| 20260505080813 | 6 | 350 | 3.2 | 3.2 | 0.00 | 0.00 | 0.00 | 90 | 1002.8 |
| 20260505080308 | 6 | 11 | 1.6 | 3.2 | 0.00 | 0.00 | 0.00 | 91 | 1002.8 |
| 20260505075804 | 7 | 135 | 1.6 | 1.6 | 0.00 | 0.00 | 0.00 | 88 | 1003.0 |
| 20260505075304 | 7 | 45 | 3.2 | 3.2 | 0.00 | 0.00 | 0.00 | 87 | 1002.8 |
| 20260505074758 | 7 | 16 | 1.6 | 1.6 | 0.00 | 0.00 | 0.00 | 89 | 1002.8 |
| 20260505074256 | 6 | 32 | 0.0 | 1.6 | 0.00 | 0.00 | 0.00 | 92 | 1002.9 |
| 20260505073753 | 6 | 355 | 1.6 | 1.6 | 0.00 | 0.00 | 0.00 | 92 | 1002.9 |
| 20260505073251 | 6 | 356 | 1.6 | 3.2 | 0.00 | 0.00 | 0.00 | 92 | 1002.7 |
| 20260505072747 | 6 | 357 | 1.6 | 3.2 | 0.00 | 0.00 | 0.00 | 91 | 1002.8 |
| 20260505072243 | 8 | 324 | 3.2 | 3.2 | 0.00 | 0.00 | 0.00 | 86 | 1003.0 |
| 20260505071739 | 8 | 11 | 1.6 | 1.6 | 0.00 | 0.00 | 0.00 | 83 | 1002.8 |
| 20260505071236 | 7 | 234 | 3.2 | 3.2 | 0.00 | 0.00 | 0.00 | 86 | 1002.8 |
| 20260505070734 | 7 | 345 | 0.0 | 1.6 | 0.00 | 0.00 | 0.00 | 86 | 1003.0 |
| 20260505070230 | 7 | 29 | 1.6 | 1.6 | 0.00 | 0.00 | 0.00 | 88 | 1002.9 |
| 20260505065726 | 9 | 53 | 1.6 | 1.6 | 0.00 | 0.00 | 0.00 | 82 | 1002.9 |
| 20260505065223 | 8 | 248 | 0.0 | 1.6 | 0.00 | 0.00 | 0.00 | 84 | 1003.0 |
| 20260505064720 | 9 | 15 | 1.6 | 1.6 | 0.00 | 0.00 | 0.00 | 81 | 1003.0 |
| 20260505064218 | 8 | 237 | 3.2 | 4.8 | 0.00 | 0.00 | 0.00 | 82 | 1003.0 |
| 20260505063715 | 8 | 43 | 0.0 | 0.0 | 0.00 | 0.00 | 0.00 | 86 | 1002.7 |
| 20260505063211 | 7 | 17 | 1.6 | 1.6 | 0.00 | 0.00 | 0.00 | 87 | 1002.7 |
| 20260505062707 | 7 | 344 | 3.2 | 3.2 | 0.00 | 0.00 | 0.00 | 88 | 1003.0 |
| 20260505062205 | 6 | 353 | 1.6 | 1.6 | 0.00 | 0.00 | 0.00 | 92 | 1002.6 |
| 20260505061701 | 7 | 317 | 3.2 | 3.2 | 0.00 | 0.00 | 0.00 | 90 | 1002.8 |
| 20260505061200 | 6 | 357 | 1.6 | 1.6 | 0.00 | 0.00 | 0.00 | 91 | 1002.9 |
| 20260505060657 | 6 | 352 | 3.2 | 3.2 | 0.00 | 0.00 | 0.00 | 91 | 1002.6 |
| 20260505060154 | 6 | 8 | 1.6 | 1.6 | 0.00 | 0.00 | 0.00 | 91 | 1002.9 |
| 20260505055649 | 7 | 355 | 1.6 | 1.6 | 0.00 | 0.00 | 0.00 | 90 | 1003.0 |
| 20260505055146 | 7 | 359 | 1.6 | 1.6 | 0.00 | 0.00 | 0.00 | 88 | 1002.9 |
| 20260505054643 | 8 | 30 | 1.6 | 1.6 | 0.00 | 0.00 | 0.00 | 86 | 1002.9 |
| 20260505054141 | 8 | 40 | 1.6 | 1.6 | 0.00 | 0.00 | 0.00 | 85 | 1002.9 |
| 20260505053639 | 8 | 40 | 1.6 | 1.6 | 0.00 | 0.00 | 0.00 | 81 | 1002.8 |
| 20260505053135 | 9 | 64 | 0.0 | 0.0 | 0.00 | 0.00 | 0.00 | 81 | 1002.8 |
| 20260505052632 | 9 | 89 | 0.0 | 0.0 | 0.00 | 0.00 | 0.00 | 80 | 1002.8 |
| 20260505052129 | 10 | 50 | 0.0 | 0.0 | 0.00 | 0.00 | 0.00 | 80 | 1002.7 |
| 20260505051626 | 10 | 43 | 1.6 | 1.6 | 0.00 | 0.00 | 0.00 | 76 | 1002.5 |
| 20260505051124 | 10 | 110 | 0.0 | 1.6 | 0.00 | 0.00 | 0.00 | 77 | 1002.6 |
| 20260505050622 | 10 | 73 | 0.0 | 1.6 | 0.00 | 0.00 | 0.00 | 76 | 1002.7 |
| 20260505050120 | 11 | 57 | 0.0 | 0.0 | 0.00 | 0.00 | 0.00 | 75 | 1002.6 |
| 20260505041549 | 10 | 26 | 1.6 | 1.6 | 0.00 | 0.00 | 0.00 | 82 | 1002.2 |
| 20260505041047 | 9 | 37 | 1.6 | 1.6 | 0.00 | 0.00 | 0.00 | 83 | 1002.4 |
| 20260505040544 | 9 | 28 | 0.0 | 1.6 | 0.00 | 0.00 | 0.00 | 84 | 1002.0 |
| 20260505040041 | 9 | 54 | 1.6 | 1.6 | 0.00 | 0.00 | 0.00 | 83 | 1002.1 |
| 20260505035537 | 9 | 43 | 1.6 | 3.2 | 0.00 | 0.00 | 0.00 | 84 | 1002.0 |
| 20260505035034 | 9 | 278 | 3.2 | 3.2 | 0.00 | 0.00 | 0.00 | 84 | 1002.1 |
| 20260505034530 | 9 | 33 | 1.6 | 3.2 | 0.00 | 0.00 | 0.00 | 84 | 1001.9 |
| 20260505034027 | 9 | 12 | 1.6 | 3.2 | 0.00 | 0.00 | 0.00 | 84 | 1001.9 |
| 20260505033524 | 9 | 36 | 1.6 | 1.6 | 0.00 | 0.00 | 0.00 | 84 | 1001.9 |
| 20260505033023 | 9 | 36 | 1.6 | 1.6 | 0.00 | 0.00 | 0.00 | 84 | 1001.8 |
| 20260505032520 | 9 | 34 | 1.6 | 1.6 | 0.00 | 0.00 | 0.00 | 84 | 1001.7 |
| 20260505032016 | 9 | 20 | 1.6 | 1.6 | 0.00 | 0.00 | 0.00 | 83 | 1001.8 |
| 20260505031514 | 9 | 17 | 1.6 | 3.2 | 0.00 | 0.00 | 0.00 | 83 | 1001.8 |
| 20260505031010 | 9 | 42 | 1.6 | 1.6 | 0.00 | 0.00 | 0.00 | 82 | 1001.8 |
| 20260505030507 | 9 | 66 | 0.0 | 0.0 | 0.00 | 0.00 | 0.00 | 82 | 1001.8 |
| 20260505030002 | 10 | 73 | 0.0 | 1.6 | 0.00 | 0.00 | 0.00 | 82 | 1001.8 |
| 20260505025459 | 10 | 28 | 1.6 | 1.6 | 0.00 | 0.00 | 0.00 | 81 | 1002.2 |
| 20260505024958 | 10 | 22 | 1.6 | 1.6 | 0.00 | 0.00 | 0.00 | 81 | 1001.8 |
| 20260505024454 | 10 | 7 | 1.6 | 1.6 | 0.00 | 0.00 | 0.00 | 80 | 1001.8 |
| 20260505023952 | 10 | 153 | 3.2 | 3.2 | 0.00 | 0.00 | 0.00 | 79 | 1001.6 |
| 20260505023448 | 10 | 33 | 3.2 | 3.2 | 0.00 | 0.00 | 0.00 | 79 | 1001.8 |
| 20260505022946 | 10 | 33 | 1.6 | 1.6 | 0.00 | 0.00 | 0.00 | 78 | 1002.0 |
| 20260505022443 | 10 | 114 | 1.6 | 1.6 | 0.00 | 0.00 | 0.00 | 77 | 1002.0 |
| 20260505021941 | 10 | 258 | 3.2 | 3.2 | 0.00 | 0.00 | 0.00 | 78 | 1002.0 |
| 20260505021437 | 10 | 10 | 1.6 | 1.6 | 0.00 | 0.00 | 0.00 | 78 | 1001.8 |
| 20260505020933 | 11 | 26 | 0.0 | 1.6 | 0.00 | 0.00 | 0.00 | 78 | 1001.7 |
| 20260505020428 | 11 | 26 | 1.6 | 1.6 | 0.00 | 0.00 | 0.00 | 77 | 1001.7 |
| 20260505015925 | 10 | 56 | 1.6 | 1.6 | 0.00 | 0.00 | 0.00 | 80 | 1001.8 |
| 20260505015422 | 10 | 58 | 0.0 | 0.0 | 0.00 | 0.00 | 0.00 | 79 | 1001.5 |
| 20260505014920 | 11 | 58 | 0.0 | 0.0 | 0.00 | 0.00 | 0.00 | 79 | 1001.7 |
| 20260505014416 | 11 | 58 | 0.0 | 0.0 | 0.00 | 0.00 | 0.00 | 80 | 1001.7 |
| 20260505013913 | 11 | 58 | 0.0 | 0.0 | 0.00 | 0.00 | 0.00 | 78 | 1001.7 |
| 20260505013410 | 11 | 58 | 0.0 | 0.0 | 0.00 | 0.00 | 0.00 | 79 | 1001.5 |
| 20260505012908 | 11 | 59 | 0.0 | 0.0 | 0.00 | 0.00 | 0.00 | 79 | 1001.5 |
| 20260505012406 | 11 | 59 | 0.0 | 0.0 | 0.00 | 0.00 | 0.00 | 78 | 1001.3 |
| 20260505011902 | 11 | 58 | 1.6 | 1.6 | 0.00 | 0.00 | 0.00 | 78 | 1001.5 |
| 20260505011359 | 11 | 59 | 0.0 | 0.0 | 0.00 | 0.00 | 0.00 | 77 | 1001.2 |
| 20260505010855 | 11 | 59 | 0.0 | 0.0 | 0.00 | 0.00 | 0.00 | 76 | 1001.1 |
| 20260505010351 | 11 | 58 | 0.0 | 0.0 | 0.00 | 0.00 | 0.00 | 74 | 1001.4 |
| 20260505005847 | 12 | 58 | 0.0 | 0.0 | 0.00 | 0.00 | 0.00 | 73 | 1001.2 |
| 20260505005344 | 12 | 58 | 0.0 | 0.0 | 0.00 | 0.00 | 0.00 | 72 | 1001.2 |
| 20260505004842 | 12 | 58 | 0.0 | 0.0 | 0.00 | 0.00 | 0.00 | 70 | 1001.3 |
| 20260505004338 | 13 | 59 | 0.0 | 1.6 | 0.00 | 0.00 | 0.00 | 69 | 1001.1 |
| 20260505003835 | 13 | 61 | 0.0 | 0.0 | 0.00 | 0.00 | 0.00 | 68 | 1001.1 |
| 20260505003333 | 13 | 59 | 0.0 | 0.0 | 0.00 | 0.00 | 0.00 | 67 | 1000.7 |
| 20260505002828 | 13 | 53 | 0.0 | 0.0 | 0.00 | 0.00 | 0.00 | 67 | 1000.8 |
| 20260505002325 | 13 | 57 | 1.6 | 1.6 | 0.00 | 0.00 | 0.00 | 67 | 1000.7 |
| 20260505001824 | 14 | 76 | 0.0 | 0.0 | 0.00 | 0.00 | 0.00 | 66 | 1000.7 |
| 20260505001320 | 14 | 93 | 0.0 | 0.0 | 0.00 | 0.00 | 0.00 | 65 | 1000.3 |
| 20260505000818 | 15 | 358 | 0.0 | 1.6 | 0.00 | 0.00 | 0.00 | 64 | 1000.5 |
| 20260505000315 | 15 | 285 | 4.8 | 6.4 | 0.00 | 0.00 | 0.00 | 63 | 1000.5 |
| 20260504235812 | 15 | 102 | 1.6 | 1.6 | 0.00 | 0.00 | 0.00 | 62 | 1000.4 |
| 20260504235309 | 15 | 19 | 1.6 | 1.6 | 0.00 | 0.00 | 0.00 | 61 | 1000.2 |
| 20260504234805 | 15 | 54 | 0.0 | 0.0 | 0.00 | 0.00 | 0.00 | 61 | 1000.2 |
| 20260504234303 | 15 | 54 | 0.0 | 1.6 | 0.00 | 0.00 | 0.00 | 60 | 1000.1 |
| 20260504233759 | 15 | 53 | 1.6 | 1.6 | 0.00 | 0.00 | 0.00 | 60 | 1000.0 |
| 20260504233255 | 15 | 93 | 3.2 | 4.8 | 0.00 | 0.00 | 0.00 | 58 | 1000.0 |
| 20260504232752 | 16 | 59 | 0.0 | 0.0 | 0.00 | 0.00 | 0.00 | 55 | 1000.3 |
| 20260504232249 | 16 | 59 | 0.0 | 0.0 | 0.00 | 0.00 | 0.00 | 55 | 999.8 |
| 20260504231746 | 16 | 59 | 1.6 | 1.6 | 0.00 | 0.00 | 0.00 | 54 | 999.9 |
| 20260504231242 | 16 | 59 | 0.0 | 0.0 | 0.00 | 0.00 | 0.00 | 54 | 999.6 |
| 20260504230738 | 16 | 59 | 0.0 | 1.6 | 0.00 | 0.00 | 0.00 | 53 | 999.7 |
| 20260504230237 | 17 | 59 | 1.6 | 1.6 | 0.00 | 0.00 | 0.00 | 51 | 999.6 |
| 20260504225735 | 17 | 60 | 1.6 | 1.6 | 0.00 | 0.00 | 0.00 | 54 | 999.7 |
| 20260504225231 | 17 | 59 | 0.0 | 0.0 | 0.00 | 0.00 | 0.00 | 50 | 999.7 |
| 20260504224729 | 17 | 59 | 0.0 | 1.6 | 0.00 | 0.00 | 0.00 | 50 | 999.6 |
| 20260504224226 | 17 | 59 | 0.0 | 0.0 | 0.00 | 0.00 | 0.00 | 49 | 999.5 |
| 20260504223722 | 17 | 59 | 1.6 | 1.6 | 0.00 | 0.00 | 0.00 | 51 | 999.6 |
| 20260504223218 | 18 | 59 | 0.0 | 1.6 | 0.00 | 0.00 | 0.00 | 50 | 999.3 |
| 20260504222715 | 19 | 357 | 1.6 | 3.2 | 0.00 | 0.00 | 0.00 | 44 | 999.7 |
| 20260504222212 | 19 | 275 | 3.2 | 3.2 | 0.00 | 0.00 | 0.00 | 44 | 999.5 |
| 20260504221709 | 20 | 286 | 3.2 | 4.8 | 0.00 | 0.00 | 0.00 | 42 | 999.6 |
| 20260504221206 | 19 | 18 | 1.6 | 1.6 | 0.00 | 0.00 | 0.00 | 43 | 999.6 |
| 20260504220702 | 20 | 358 | 3.2 | 3.2 | 0.00 | 0.00 | 0.00 | 43 | 999.5 |
| 20260504220200 | 20 | 17 | 1.6 | 1.6 | 0.00 | 0.00 | 0.00 | 42 | 999.6 |
| 20260504215656 | 20 | 300 | 3.2 | 4.8 | 0.00 | 0.00 | 0.00 | 43 | 999.6 |
| 20260504215154 | 19 | 301 | 4.8 | 4.8 | 0.00 | 0.00 | 0.00 | 43 | 999.5 |
| 20260504214649 | 19 | 298 | 3.2 | 3.2 | 0.00 | 0.00 | 0.00 | 43 | 999.4 |
| 20260504214146 | 19 | 307 | 4.8 | 4.8 | 0.00 | 0.00 | 0.00 | 43 | 999.6 |
| 20260504213643 | 19 | 296 | 6.4 | 6.4 | 0.00 | 0.00 | 0.00 | 44 | 999.6 |
| 20260504213139 | 18 | 291 | 6.4 | 9.7 | 0.00 | 0.00 | 0.00 | 44 | 999.7 |
| 20260504212636 | 19 | 325 | 4.8 | 4.8 | 0.00 | 0.00 | 0.00 | 45 | 999.5 |
| 20260504212133 | 19 | 288 | 9.7 | 11.3 | 0.00 | 0.00 | 0.00 | 45 | 999.5 |
| 20260504211630 | 18 | 314 | 4.8 | 4.8 | 0.00 | 0.00 | 0.00 | 46 | 999.5 |
| 20260504211126 | 18 | 347 | 3.2 | 3.2 | 0.00 | 0.00 | 0.00 | 46 | 999.8 |
| 20260504210624 | 18 | 312 | 6.4 | 9.7 | 0.00 | 0.00 | 0.00 | 46 | 999.7 |
| 20260504210120 | 18 | 346 | 3.2 | 3.2 | 0.00 | 0.00 | 0.00 | 47 | 999.8 |
| 20260504205618 | 17 | 218 | 4.8 | 6.4 | 0.00 | 0.00 | 0.00 | 49 | 999.7 |
| 20260504205116 | 17 | 52 | 1.6 | 1.6 | 0.00 | 0.00 | 0.00 | 50 | 999.6 |
| 20260504204614 | 17 | 271 | 4.8 | 4.8 | 0.00 | 0.00 | 0.00 | 48 | 999.5 |
| 20260504204112 | 17 | 318 | 3.2 | 4.8 | 0.00 | 0.00 | 0.00 | 48 | 999.5 |
| 20260504203611 | 17 | 276 | 8.0 | 9.7 | 0.00 | 0.00 | 0.00 | 48 | 999.7 |
| 20260504203108 | 17 | 285 | 9.7 | 12.9 | 0.00 | 0.00 | 0.00 | 49 | 999.8 |
| 20260504202603 | 18 | 295 | 4.8 | 6.4 | 0.00 | 0.00 | 0.00 | 49 | 999.7 |
| 20260504202100 | 18 | 298 | 6.4 | 6.4 | 0.00 | 0.00 | 0.00 | 46 | 999.8 |
| 20260504201557 | 18 | 346 | 4.8 | 6.4 | 0.00 | 0.00 | 0.00 | 49 | 999.8 |